Regional Weather Roundup
Issued by NWS

Home | Current Version | Previous Version | Text Only | Print | Product List | Glossary On
Versions: 1 2 3 4 5 6 7 8 9 10 11 12 13 14 15 16 17 18 19 20 21 22 23 24 25 26 27 28 29 30 31 32 33 34 35 36 37 38 39 40 41 42 43 44 45 46 47 48 49 50
000
ASUS43 KLSX 270607
RWRMO
STLRWRMO ALL

WEATHER SUMMARY FOR MISSOURI
NATIONAL WEATHER SERVICE SPRINGFIELD MO
100 AM CDT MON MAR 27 2017

NOTE: "FAIR" INDICATES FEW OR NO CLOUDS BELOW 12,000 FEET WITH NO
       SIGNIFICANT WEATHER AND/OR OBSTRUCTIONS TO VISIBILITY.
       CURRENT SKY AND/OR WEATHER CONDITIONS ARE NOT AVAILABLE FOR
       CHILLICOTHE AND FARMINGTON.

MOZ001>031-035>038-043-044-053-054-270700-
...NORTHERN AND WESTERN MISSOURI...

CITY           SKY/WX    TMP DP  RH WIND       PRES   REMARKS
KANSAS CTY INT DRIZZLE   46  45  96 N9        29.91F
6HR MIN TEMP:  46; 6HR MAX TEMP:  51; 6HR PCP:  0.03;

KANSAS C DTWN  LGT RAIN  49  46  90 N7        29.90S
6HR MIN TEMP:  49; 6HR MAX TEMP:  53; 6HR PCP: TRACE;

LEE`S SUMMIT   CLOUDY    49  46  90 NE10      29.89F
6HR MIN TEMP:  49; 6HR MAX TEMP:  54; 6HR PCP:  0.01;

ST JOSEPH      LGT RAIN  46  45  96 E5        29.94F FOG
6HR MIN TEMP:  46; 6HR MAX TEMP:  49; 6HR PCP:  0.04;

CHILLICOTHE      N/A     49  44  83 CALM      29.95R
6HR MIN TEMP:  48; 6HR MAX TEMP:  51;

KIRKSVILLE     CLOUDY    46  45  96 SE3       29.93F
6HR MIN TEMP:  46; 6HR MAX TEMP:  49;


$$
MOZ066>068-077>081-088>096-101>105-270700-
...SOUTHWEST MISSOURI...

CITY           SKY/WX    TMP DP  RH WIND       PRES   REMARKS
SPRINGFIELD    LGT RAIN  56  54  93 SE23G29   29.86F
6HR MIN TEMP:  56; 6HR MAX TEMP:  64; 6HR PCP:  0.64;

JOPLIN         CLOUDY    59  54  83 E12       29.75F
6HR MIN TEMP:  58; 6HR MAX TEMP:  65; 6HR PCP:  0.15;

BRANSON        HVY RAIN  55  55 100 CALM      29.91F

$$
MOZ032>034-039>042-045>050-055>058-069>072-270700-
...CENTRAL MISSOURI...

CITY           SKY/WX    TMP DP  RH WIND       PRES   REMARKS
COLUMBIA       CLOUDY    50  49  96 E7        29.92S
6HR MIN TEMP:  50; 6HR MAX TEMP:  57; 6HR PCP: TRACE;

JEFFERSON CITY CLOUDY    54  48  80 CALM      29.91F
6HR MIN TEMP:  52; 6HR MAX TEMP:  61; 6HR PCP:  0.01;

ROLLA          MOCLDY    52  50  93 E6        29.90F
6HR MIN TEMP:  52; 6HR MAX TEMP:  61;

SEDALIA        CLOUDY    51  49  92 NE8       29.91F
6HR MIN TEMP:  51; 6HR MAX TEMP:  57; 6HR PCP:  0.01;

WHITEMAN AFB   CLOUDY    50  50 100 E10       29.89F
WARRENSBURG    CLOUDY    48  46  93 NE9       29.90S
OSAGE BEACH    LGT RAIN N/A N/A N/A E3        29.91F

$$
MOZ051-052-059>065-270700-
...EAST CENTRAL MISSOURI...

CITY           SKY/WX    TMP DP  RH WIND       PRES   REMARKS
ST LOUIS INTL  CLOUDY    52  47  83 NE5       29.94S
6HR MIN TEMP:  51; 6HR MAX TEMP:  62;

SPIRIT OF STL  MOCLDY    50  49  96 CALM      29.93S
6HR MIN TEMP:  49; 6HR MAX TEMP:  60;

ST CHARLES     CLOUDY    50  48  93 NE6       29.94R
6HR MIN TEMP:  49; 6HR MAX TEMP:  58;


$$
MOZ072>076-082>087-097>100-106>115-270700-
...SOUTH CENTRAL AND SOUTHEAST MISSOURI...

CITY           SKY/WX    TMP DP  RH WIND       PRES   REMARKS
CAPE GIRARDEAU MOCLDY    50  47  89 E3        29.94F
6HR MIN TEMP:  50; 6HR MAX TEMP:  60;

FARMINGTON     CLOUDY    53  47  79 S5        29.94S
6HR MIN TEMP:  51; 6HR MAX TEMP:  60;

POPLAR BLUFF   CLOUDY    54  52  93 CALM      29.92F
6HR MIN TEMP:  54; 6HR MAX TEMP:  64;

WEST PLAINS    CLOUDY    57  49  74 E6        29.89F
6HR MIN TEMP:  57; 6HR MAX TEMP:  64;


$$



USA.gov is the U.S. government's official web portal to all federal, state and local government web resources and services.